logo
Search for airport 
image banner adimage banner adimage banner ad
image banner ad

EHS052 - Wijchen

Located in , Netherlands

ICAO - , IATA -

Data provided by Airmate  

General information

Coordinates: N51°49'51" E5°44'22"
Elevation is 11 feet MSL.
 
View others Airports in Gelderland

Operational data

Special qualification required
Current time UTC:
Current local time:
Weather at : EHVK - Volkel ( 19 km )
METAR: EHVK 150830Z AUTO 23018KT 200V260 9999 FEW023 BKN027 OVC130 10/05 Q1008 BLU NOSIG
TAF: TAF EHVK 150055Z 1501/1513 22007KT CAVOK BECMG 1507/1509 23016G30KT TEMPO 1510/1513 25017G40KT 4000 RA SHRAGS SCT018 FEW020CB BKN025 PROB30 TEMPO 1512/1513 26022G45KT 2000 TSRAGS FEW010 SCT015CB BKN018
View NOTAMs / SUP AIP / TFR affecting this airport [VIEW]
Communications frequencies: [VIEW]

Runways:

Airport contact information

Address: Netherlands

Satellite view of EHS052